AI4ZL Weather Reports


Display with metric or nautical units.
time (UTC)temp
F
wind
direction
speed
MPH
gust
MPH
rain 1hr
in
rain 24hr
in
rain mn
in
humidity
%
barometer
mb
20260506061027 49 266 1.0 3.0 0.03 1.09 0.04 99 1011.7
20260506051023 49 0.0 2.0 0.02 1.06 0.01 99 1010.5
20260506045033 50 321 0.0 3.0 0.01 1.05 1.05 99 1010.5
20260506044021 50 344 0.0 2.0 0.01 1.05 1.05 99 1011.0
20260506043026 50 4 0.0 2.0 0.02 1.05 1.05 99 1011.0
20260506042031 50 47 0.0 3.0 0.06 1.05 1.05 99 1011.0
20260506041018 50 349 0.0 4.0 0.07 1.04 1.04 99 1010.9
20260506040024 51 335 1.0 4.0 0.08 1.04 1.04 99 1010.9
20260506035029 51 341 0.0 2.0 0.09 1.04 1.04 99 1010.7
20260506034038 51 9 0.0 2.0 0.09 1.04 1.04 99 1010.5
20260506033022 51 351 0.0 1.0 0.09 1.03 1.03 99 1010.3
20260506032047 51 288 0.0 4.0 0.06 0.99 0.99 99 1010.2
20260506031032 51 0.0 1.0 0.05 0.97 0.97 99 1010.1
20260506030020 51 307 0.0 4.0 0.04 0.96 0.96 99 1009.7
20260506025024 52 342 1.0 6.0 0.03 0.95 0.95 99 1009.9
20260506024029 52 337 1.0 4.0 0.05 0.95 0.95 99 1009.5
20260506023018 52 32 0.0 3.0 0.05 0.94 0.94 99 1009.3
20260506022023 53 334 1.0 7.0 0.04 0.93 0.93 99 1009.2
20260506021027 53 301 2.0 7.0 0.05 0.92 0.92 99 1009.1
20260506020053 54 354 1.0 4.0 0.05 0.92 0.92 99 1008.6
20260506015021 54 338 0.0 2.0 0.05 0.92 0.92 99 1008.2
20260506014026 55 0.0 0.0 0.04 0.90 0.90 99 1008.3
20260506013030 55 0.0 0.0 0.03 0.89 0.89 99 1008.4
20260506012019 55 0.0 0.0 0.04 0.89 0.89 99 1008.3
20260506011024 55 0.0 0.0 0.05 0.87 0.87 99 1008.0
20260506010029 55 267 0.0 1.0 0.05 0.87 0.87 99 1008.3
20260506005037 55 0.0 0.0 0.06 0.87 0.87 99 1008.2
20260506004042 55 0.0 0.0 0.06 0.86 0.86 99 1008.1
20260506003026 55 65 0.0 1.0 0.07 0.86 0.86 99 1008.1
20260506002031 56 343 0.0 1.0 0.07 0.85 0.85 99 1008.5
20260506001019 56 0.0 0.0 0.06 0.82 0.82 99 1008.4
20260506000044 56 0.0 0.0 0.10 0.82 0.82 99 1008.2
20260505235049 56 0.0 1.0 0.17 0.81 0.81 99 1008.0
20260505234017 56 68 0.0 3.0 0.19 0.80 0.80 99 1007.9
20260505233022 56 339 0.0 2.0 0.19 0.79 0.79 99 1008.4
20260505232027 56 316 0.0 2.0 0.18 0.78 0.78 99 1008.3
20260505231032 56 308 0.0 4.0 0.17 0.76 0.76 99 1008.6
20260505230020 58 332 4.0 9.0 0.13 0.72 0.72 99 1008.9
20260505225133 63 315 4.0 9.0 0.06 0.64 0.64 99 1008.7
20260505224111 63 272 3.0 4.0 0.05 0.61 0.61 99 1008.5
20260505223035 63 254 1.0 6.0 0.04 0.60 0.60 99 1008.4
20260505222043 63 232 2.0 4.0 0.05 0.60 0.60 99 1008.4
20260505221028 63 203 3.0 6.0 0.04 0.59 0.59 99 1008.5
20260505220032 63 227 2.0 7.0 0.04 0.59 0.59 99 1008.5
20260505215020 63 200 1.0 4.0 0.03 0.58 0.58 99 1008.5
20260505214026 63 191 0.0 2.0 0.02 0.56 0.56 99 1008.4
20260505213030 63 198 1.0 3.0 0.02 0.56 0.56 99 1008.4
20260505212018 63 240 0.0 3.0 0.02 0.55 0.55 99 1008.6
20260505211024 63 220 2.0 3.0 0.02 0.55 0.55 99 1008.5
20260505210028 63 254 0.0 3.0 0.02 0.55 0.55 99 1008.3
20260505205016 63 219 1.0 3.0 0.02 0.55 0.55 99 1008.5
20260505204022 63 226 1.0 3.0 0.01 0.54 0.54 99 1008.5
20260505203026 63 217 1.0 4.0 0.01 0.54 0.54 99 1008.5
20260505202031 63 213 1.0 4.0 0.01 0.53 0.53 99 1008.5
20260505201040 63 206 3.0 7.0 0.01 0.53 0.53 99 1008.6
20260505200024 63 210 2.0 7.0 0.01 0.53 0.53 99 1008.8
20260505195029 63 204 2.0 7.0 0.01 0.53 0.53 99 1008.6
20260505194017 63 183 1.0 3.0 0.01 0.53 0.53 99 1008.7
20260505193043 62 195 1.0 6.0 0.01 0.53 0.53 99 1009.0
20260505192027 62 207 2.0 6.0 0.00 0.52 0.52 99 1009.2
20260505191032 62 213 2.0 6.0 0.00 0.52 0.52 99 1009.3
20260505190020 62 208 1.0 4.0 0.00 0.52 0.52 99 1009.1
20260505185025 62 191 2.0 4.0 0.00 0.52 0.52 99 1009.0
20260505184030 62 102 1.0 4.0 0.00 0.52 0.52 99 1009.1
20260505183039 62 142 1.0 4.0 0.00 0.52 0.52 99 1009.3
20260505182023 62 195 2.0 6.0 0.00 0.52 0.52 99 1009.4
20260505181027 62 79 1.0 3.0 0.00 0.52 0.52 99 1009.5
20260505180033 62 191 2.0 4.0 0.01 0.52 0.52 99 1009.6
20260505175021 61 220 2.0 7.0 0.02 0.52 0.52 99 1009.8
20260505174046 61 84 1.0 4.0 0.09 0.52 0.52 99 1010.1
20260505173112 61 119 0.0 2.0 0.10 0.52 0.52 99 1010.1
20260505172039 61 277 0.0 1.0 0.10 0.52 0.52 99 1010.3
20260505171024 60 86 0.0 1.0 0.10 0.52 0.52 99 1010.3
20260505170029 60 153 0.0 2.0 0.10 0.51 0.51 99 1010.4
20260505165016 60 204 1.0 6.0 0.09 0.50 0.50 99 1010.7
20260505164022 60 180 3.0 6.0 0.03 0.43 0.43 99 1010.7
20260505163027 61 103 1.0 4.0 0.03 0.42 0.42 99 1010.5
20260505162053 60 109 1.0 3.0 0.03 0.42 0.42 99 1010.5
20260505161020 60 184 1.0 2.0 0.04 0.42 0.42 99 1010.5
20260505153022 60 126 1.0 4.0 0.01 0.39 0.39 99 1010.6
20260505152028 60 89 0.0 4.0 0.02 0.39 0.39 99 1010.4
20260505151032 60 0.0 0.0 0.01 0.38 0.38 99 1010.6
20260505125018 65 182 2.0 4.0 0.00 0.00 0.00 75 1009.9
20260505124022 64 198 3.0 8.0 0.00 0.00 0.00 75 1009.8
20260505123027 64 200 2.0 6.0 0.00 0.00 0.00 75 1009.7
20260505122032 64 207 2.0 3.0 0.00 0.00 0.00 75 1009.5
20260505121020 63 319 1.0 2.0 0.00 0.00 0.00 76 1009.4
20260505120025 63 123 1.0 7.0 0.00 0.00 0.00 75 1009.2
20260505115050 63 178 2.0 6.0 0.00 0.00 0.00 75 1009.3
20260505114017 63 157 2.0 3.0 0.00 0.00 0.00 75 1009.1
20260505113023 63 218 0.0 2.0 0.00 0.00 0.00 76 1009.0
20260505112028 62 159 1.0 4.0 0.00 0.00 0.00 75 1009.0
20260505111033 62 103 1.0 3.0 0.00 0.00 0.00 75 1008.8
20260505102043 62 100 1.0 2.0 0.00 0.00 0.00 76 1009.1
20260505101028 62 243 0.0 1.0 0.00 0.00 0.00 76 1009.2
20260505100033 62 96 0.0 2.0 0.00 0.00 0.00 75 1009.2
20260505095021 62 83 0.0 1.0 0.00 0.00 0.00 74 1009.4
20260505094026 63 200 1.0 3.0 0.00 0.00 0.00 72 1009.6
20260505093052 63 207 1.0 3.0 0.00 0.00 0.00 71 1009.5
20260505092036 63 209 1.0 3.0 0.00 0.00 0.00 72 1009.5
20260505091024 63 181 1.0 4.0 0.00 0.00 0.00 72 1009.4
20260505090029 64 201 2.0 4.0 0.00 0.00 0.00 71 1009.6
20260505085017 63 213 0.0 3.0 0.00 0.00 0.00 72 1009.6
20260505084022 63 200 1.0 2.0 0.00 0.00 0.00 72 1009.8
20260505083048 63 295 0.0 2.0 0.00 0.00 0.00 72 1009.4
20260505082031 64 202 1.0 3.0 0.00 0.00 0.00 71 1009.4
20260505081020 64 210 2.0 3.0 0.00 0.00 0.00 69 1009.6
20260505080025 64 195 2.0 3.0 0.00 0.00 0.00 70 1009.5
20260505075030 64 199 2.0 3.0 0.00 0.00 0.00 69 1009.6
20260505074038 64 207 1.0 4.0 0.00 0.00 0.00 69 1009.4
20260505073022 65 199 1.0 4.0 0.00 0.00 0.00 68 1009.1
20260505072109 65 191 2.0 4.0 0.00 0.00 0.00 68 1008.9
20260505071033 65 192 1.0 3.0 0.00 0.00 0.00 67 1008.9
20260505070021 65 211 2.0 6.0 0.00 0.00 0.00 66 1009.2
20260505065025 66 208 3.0 9.0 0.00 0.00 0.00 65 1009.3
20260505064030 66 198 3.0 7.0 0.00 0.00 0.00 66 1009.4
20260505063019 66 216 2.0 4.0 0.00 0.00 0.00 65 1009.3
20260505062023 66 209 3.0 7.0 0.00 0.00 0.00 64 1009.3